Flag for U.S.A. Weather past 2 weeks in Little Rock, Arkansas, U.S.A.

Now
72 °F

Passing clouds.


Feels Like: 72 °F
Forecast: 68 / 84 °F
Wind: 8 mph from Northeast

Location: Adams Field

Current Time: Sep 18, 2014 at 9:18:34 PM

Latest Report: Sep 18, 2014 at 8:53 PM


Visibility: 10 mi

Pressure: 29.97 "Hg

Humidity: 81%

Dew point: 66 °F

Location of Little RockLocation

Historic Weather in Little Rock — Graph

°F

Little Rock temperature yesterday

Maximum temperature yesterday: 85 °F (at 3:53 PM)
Minimum temperature yesterday: 63 °F (at 6:53 AM)
Average temperature yesterday: 74 °F

Past Weeks' High & Low Weather Summary

 TemperatureHumidityPressure
High94 °F (Sep 4, 3:53 PM)90% (Sep 4, 6:53 AM)30.32 "Hg (Sep 4, 6:53 AM)
Low56 °F (Sep 13, 5:53 AM)45% (Sep 8, 1:53 PM)29.80 "Hg (Sep 10, 6:53 PM)
Average75 °F71%30.05 "Hg
* Reported Sep 3 7:53 PM — Sep 18 7:53 PM, Little Rock, Weather by CustomWeather, © 2014

Note: Actual official high and low records may vary slightly from our data, if they occured in-between our weather recording intervals... More about our weather records

Advertising

Little Rock weather history for previous 24 hours

 ConditionsComfort  
Time TempWeatherWind HumidityBarometerVisibility
7:53 PM
Sep 18
75 °FMostly cloudy.9 mph76%29.94 "Hg10 mi
6:53 PM76 °FBroken clouds.7 mph74%29.93 "Hg10 mi
5:53 PM78 °FBroken clouds.9 mph69%29.93 "Hg10 mi
4:53 PM80 °FBroken clouds.10 mph64%29.92 "Hg10 mi
3:53 PM78 °FOvercast.6 mph69%29.93 "Hg10 mi
2:53 PM78 °FOvercast.5 mph69%29.92 "Hg10 mi
1:53 PM79 °FOvercast.7 mph67%29.93 "Hg10 mi
12:53 PM79 °FPartly sunny.6 mph67%29.94 "Hg10 mi
11:53 AM79 °FOvercast.6 mph67%29.96 "Hg7 mi
10:53 AM75 °FBroken clouds.5 mph71%29.96 "Hg7 mi
9:53 AM71 °FOvercast.6 mph78%29.98 "Hg5 mi
8:53 AM68 °FLow clouds.6 mph84%29.96 "Hg5 mi
7:53 AM67 °FFog.6 mph87%29.95 "Hg4 mi
6:53 AM67 °FFog.6 mph87%29.92 "Hg4 mi
5:53 AM67 °FFog.7 mph87%29.90 "Hg4 mi
4:53 AM68 °FFog.6 mph87%29.90 "Hg5 mi
3:53 AM70 °FFog.7 mph87%29.89 "Hg5 mi
2:53 AM72 °FFog.8 mph87%29.90 "Hg5 mi
1:53 AM73 °FOvercast.5 mph88%29.90 "Hg7 mi
12:53 AM73 °FMostly cloudy.3 mph88%29.92 "Hg7 mi
11:53 PM
Sep 17
74 °FMostly cloudy.5 mph85%29.91 "Hg7 mi
10:53 PM74 °FMostly cloudy.No wind85%29.91 "Hg7 mi
9:53 PM76 °FPassing clouds.No wind77%29.92 "Hg10 mi
Weather by CustomWeather, © 2014

See weather overviewHow to use our weather pages